User: anonymous
Location: Fort Wayne
(41.1310°N, 85.1290°W)
Time: 07:05:00
(UTC-04:00)
Language:

Vanguard 3 - Orbit

View from above orbital plane
View from above orbital plane
View from above satellite
View from above satellite

Ground track
Ground track

The orbit data is extracted from the following two-line orbital elements,

1 00020U 59007A   14107.81540989  .00002426  00000-0  97563-3 0  4688
2 00020 033.3525 280.5179 1676551 207.0351 143.2268 11.53843641970071
Epoch (UTC): 17 April 2014 19:34:11
Eccentricity: 0.1676551
inclination: 33.3525°
perigee height: 507 km
apogee height: 3281 km
right ascension of ascending node: 280.5179°
argument of perigee: 207.0351°
revolutions per day: 11.53843641
mean anomaly at epoch: 143.2268°
orbit number at epoch: 97007

The dashed part of the orbit path shows where the satellite is in the earth's shadow,  

DLR